Date String (YYYY-MM-DD hh:mm:ss) UTC,Instrument flags,Ambient pressure (hPa),Sample flow (lpm),Bypass flow (lpm),Sample temperature (°C),Ambient temperature (°C),ASC tube jacket temperature (°C),LED temperature (°C),Box temperature (°C),Sample RH (%),Span deviation,Mass concentration (μg/m³),Mass concentration (μg/m³),Mass concentration (μg/m³)
DateTimeUTC,F1_M11,P_M11,Q1_M11,Q2_M11,T1_M11,T2_M11,T3_M11,T4_M11,T5_M11,U1_M11,ZSPAN_M11,X0_M11,X2_M11,X1_M11
2023-03-06 18:00:00,,0824.1,5.00,0.00,21.3,19.6,00.0,30.2,22.9,08.0,0000.0,0009.53,0003.13,0001.96
2023-03-06 18:01:00,,0824.1,5.00,0.00,21.3,19.5,00.0,30.2,22.8,07.9,0000.0,0009.05,0003.13,0001.98
2023-03-06 18:02:00,,0824.1,5.01,0.00,21.3,19.8,00.0,30.2,22.9,07.9,0000.0,0007.93,0003.13,0002.00
2023-03-06 18:03:00,,0824.1,5.00,0.00,21.4,21.4,00.0,30.1,23.2,07.8,0000.0,0007.30,0003.13,0002.01
2023-03-06 18:04:00,,0824.1,4.97,0.00,21.6,22.5,00.0,30.2,23.6,07.7,0000.0,0007.53,0003.10,0002.01
2023-03-06 18:05:00,,0824.0,5.01,0.00,21.7,22.5,00.0,30.2,23.7,07.8,0000.0,0007.46,0003.09,0002.01
2023-03-06 18:06:00,,0824.0,5.00,0.00,21.7,21.9,00.0,30.3,23.5,07.7,0000.0,0007.35,0003.05,0002.01
2023-03-06 18:07:00,,0824.0,4.99,0.00,21.7,21.3,00.0,30.3,23.3,07.7,0000.0,0007.55,0002.99,0002.00
2023-03-06 18:08:00,,0824.1,5.01,0.00,21.6,20.9,00.0,30.3,23.2,07.7,0000.0,0008.03,0002.95,0001.99
2023-03-06 18:09:00,,0824.1,5.00,0.00,21.6,20.5,00.0,30.3,23.1,07.8,0000.0,0008.50,0002.95,0001.99
2023-03-06 18:10:00,,0824.1,5.00,0.00,21.5,20.2,00.0,30.3,23.0,07.7,0000.0,0008.63,0002.97,0002.00
2023-03-06 18:11:00,,0824.1,5.00,0.00,21.5,20.0,00.0,30.3,23.0,07.7,0000.0,0008.94,0003.02,0002.01
2023-03-06 18:12:00,,0824.1,5.00,0.00,21.4,19.9,00.0,30.3,22.9,07.9,0000.0,0009.34,0003.02,0002.01
2023-03-06 18:13:00,,0824.1,5.01,0.00,21.4,19.7,00.0,30.3,22.9,07.8,0000.0,0009.49,0003.06,0002.02
2023-03-06 18:14:00,,0824.0,5.01,0.00,21.4,19.6,00.0,30.3,22.9,07.8,0000.0,0009.60,0003.09,0002.04
2023-03-06 18:15:00,,0824.1,4.99,0.00,21.3,19.5,00.0,30.3,22.9,08.1,0000.0,0009.20,0003.11,0002.07
2023-03-06 18:16:00,,0824.0,5.01,0.00,21.3,19.5,00.0,30.2,22.9,08.1,0000.0,0009.19,0003.12,0002.09
2023-03-06 18:17:00,,0824.0,5.01,0.00,21.3,19.4,00.0,30.2,22.8,07.8,0000.0,0009.34,0003.12,0002.10
2023-03-06 18:18:00,,0824.1,5.01,0.00,21.2,19.4,00.0,30.2,22.7,07.7,0000.0,0010.00,0003.14,0002.13
2023-03-06 18:19:00,,0824.1,4.99,0.00,21.3,20.4,00.0,30.2,23.0,07.7,0000.0,0010.78,0003.17,0002.16
2023-03-06 18:20:00,,0824.0,4.98,0.00,21.4,22.0,00.0,30.2,23.3,07.7,0000.0,0010.30,0003.21,0002.19
2023-03-06 18:21:00,,0824.1,4.99,0.00,21.6,22.2,00.0,30.2,23.5,07.7,0000.0,0010.19,0003.20,0002.18
2023-03-06 18:22:00,,0824.0,4.99,0.00,21.6,21.7,00.0,30.3,23.4,07.7,0000.0,0009.95,0003.20,0002.18
2023-03-06 18:23:00,,0824.0,5.02,0.00,21.6,21.2,00.0,30.3,23.3,07.5,0000.0,0010.37,0003.21,0002.19
2023-03-06 18:24:00,,0824.0,5.00,0.00,21.6,20.8,00.0,30.3,23.2,07.8,0000.0,0010.27,0003.19,0002.18
2023-03-06 18:25:00,,0823.9,5.00,0.00,21.6,20.5,00.0,30.3,23.2,07.7,0000.0,0010.31,0003.19,0002.17
2023-03-06 18:26:00,,0824.0,5.00,0.00,21.5,20.2,00.0,30.3,23.1,07.7,0000.0,0010.64,0003.19,0002.18
2023-03-06 18:27:00,,0824.0,5.00,0.00,21.5,20.1,00.0,30.3,23.0,07.9,0000.0,0011.29,0003.22,0002.17
2023-03-06 18:28:00,,0824.0,5.00,0.00,21.5,19.9,00.0,30.3,23.1,07.8,0000.0,0011.80,0003.22,0002.20
2023-03-06 18:29:00,,0824.0,5.00,0.00,21.5,19.9,00.0,30.3,23.0,07.9,0000.0,0011.35,0003.21,0002.20
2023-03-06 18:30:00,,0824.0,5.00,0.00,21.4,19.8,00.0,30.3,23.0,07.8,0000.0,0009.92,0003.23,0002.18
2023-03-06 18:31:00,,0824.0,4.99,0.00,21.4,19.7,00.0,30.3,23.0,08.1,0000.0,0009.87,0003.23,0002.16
2023-03-06 18:32:00,,0824.0,5.00,0.00,21.4,19.7,00.0,30.2,23.0,08.4,0000.0,0009.86,0003.23,0002.14
2023-03-06 18:33:00,,0824.0,5.01,0.00,21.4,19.6,00.0,30.2,22.9,08.2,0000.0,0010.14,0003.26,0002.13
2023-03-06 18:34:00,,0824.0,5.00,0.00,21.3,19.5,00.0,30.2,22.8,08.2,0000.0,0010.76,0003.27,0002.12
2023-03-06 18:35:00,,0824.0,5.01,0.00,21.3,19.5,00.0,30.2,22.8,08.3,0000.0,0011.06,0003.25,0002.09
2023-03-06 18:36:00,,0824.0,5.00,0.00,21.3,19.7,00.0,30.2,22.9,08.4,0000.0,0010.93,0003.25,0002.07
2023-03-06 18:37:00,,0824.1,5.00,0.00,21.4,21.2,00.0,30.2,23.2,08.5,0000.0,0010.60,0003.18,0002.03
2023-03-06 18:38:00,,0824.0,4.98,0.00,21.5,22.3,00.0,30.2,23.5,07.9,0000.0,0010.40,0003.16,0001.99
2023-03-06 18:39:00,,0824.0,4.99,0.00,21.6,21.9,00.0,30.2,23.5,08.0,0000.0,0011.08,0003.14,0001.97
2023-03-06 18:40:00,,0823.9,5.00,0.00,21.6,21.4,00.0,30.3,23.4,08.0,0000.0,0011.01,0003.16,0001.96
2023-03-06 18:41:00,,0823.9,5.03,0.00,21.6,21.1,00.0,30.3,23.3,08.3,0000.0,0010.97,0003.14,0001.96
2023-03-06 18:42:00,,0824.0,5.00,0.00,21.6,20.8,00.0,30.3,23.3,08.5,0000.0,0010.76,0003.10,0001.95
2023-03-06 18:43:00,,0824.0,5.00,0.00,21.6,20.6,00.0,30.3,23.3,08.5,0000.0,0010.73,0003.06,0001.95
2023-03-06 18:44:00,,0823.9,5.01,0.00,21.6,20.5,00.0,30.3,23.3,08.6,0000.0,0011.17,0002.97,0001.96
2023-03-06 18:45:00,,0823.9,5.00,0.00,21.6,20.3,00.0,30.3,23.3,08.6,0000.0,0009.64,0002.89,0001.96
2023-03-06 18:46:00,,0823.9,5.00,0.00,21.6,20.2,00.0,30.3,23.2,08.3,0000.0,0008.71,0002.93,0001.97
2023-03-06 18:47:00,,0823.8,5.00,0.00,21.6,20.1,00.0,30.3,23.2,08.4,0000.0,0009.05,0002.93,0001.98
2023-03-06 18:48:00,,0823.9,5.01,0.00,21.5,20.0,00.0,30.3,23.1,08.5,0000.0,0009.22,0002.95,0002.00
2023-03-06 18:49:00,,0823.8,5.01,0.00,21.5,19.9,00.0,30.3,23.1,08.4,0000.0,0009.04,0002.97,0002.01
2023-03-06 18:50:00,,0823.8,5.01,0.00,21.5,19.8,00.0,30.3,23.0,08.4,0000.0,0008.02,0002.97,0002.00
2023-03-06 18:51:00,,0823.7,4.99,0.00,21.4,19.7,00.0,30.3,23.0,08.3,0000.0,0008.16,0002.89,0001.99
2023-03-06 18:52:00,,0823.8,5.00,0.00,21.4,19.5,00.0,30.3,22.9,08.4,0000.0,0008.19,0002.85,0001.97
2023-03-06 18:53:00,,0823.8,5.01,0.00,21.4,19.5,00.0,30.2,22.9,08.4,0000.0,0008.07,0002.83,0001.98
2023-03-06 18:54:00,,0823.7,5.01,0.00,21.3,19.4,00.0,30.2,22.9,08.3,0000.0,0008.27,0002.87,0001.98
2023-03-06 18:55:00,,0823.7,4.99,0.00,21.3,19.4,00.0,30.2,22.9,08.4,0000.0,0007.77,0002.84,0001.97
2023-03-06 18:56:00,,0823.8,4.99,0.00,21.3,19.5,00.0,30.2,22.9,08.4,0000.0,0007.90,0002.84,0001.96
2023-03-06 18:57:00,,0823.8,5.03,0.00,21.4,20.8,00.0,30.2,23.2,08.4,0000.0,0007.90,0002.81,0001.95
2023-03-06 18:58:00,,0823.7,4.99,0.00,21.5,22.1,00.0,30.2,23.5,08.3,0000.0,0007.61,0002.82,0001.96
2023-03-06 18:59:00,,0823.7,5.02,0.00,21.6,22.2,00.0,30.2,23.5,08.3,0000.0,0007.47,0002.85,0001.96
